CW5575 Weather Reports


time (UTC)temp
C
wind
direction
speed
KPH
gust
KPH
rain 1hr
cm
rain 24hr
cm
rain mn
cm
humidity
%
barometer
mb
20260505231002 29 196 8.0 17.7 0.00 0.00 0.00 67 1005.0
20260505230502 29 223 6.4 16.1 0.00 0.00 0.00 66 1004.8
20260505230010 30 180 4.8 16.1 0.00 0.00 0.00 67 1004.6
20260505225505 30 253 9.7 16.1 0.00 0.00 0.00 66 1004.6
20260505225003 30 263 6.4 16.1 0.00 0.00 0.00 66 1004.7
20260505224508 30 245 6.4 19.3 0.00 0.00 0.00 66 1004.6
20260505224004 30 244 6.4 19.3 0.00 0.00 0.00 65 1004.5
20260505223503 30 110 6.4 17.7 0.00 0.00 0.00 65 1004.5
20260505223010 30 202 3.2 22.5 0.00 0.00 0.00 67 1004.5
20260505222505 30 243 6.4 22.5 0.00 0.00 0.00 66 1004.6
20260505222002 30 221 4.8 22.5 0.00 0.00 0.00 66 1004.7
20260505221503 30 248 6.4 22.5 0.00 0.00 0.00 66 1004.7
20260505221002 30 213 8.0 19.3 0.00 0.00 0.00 66 1004.6
20260505220502 30 213 8.0 19.3 0.00 0.00 0.00 64 1004.6
20260505220008 30 147 6.4 24.1 0.00 0.00 0.00 65 1004.7
20260505215503 30 258 8.0 24.1 0.00 0.00 0.00 65 1004.6
20260505215006 30 250 8.0 19.3 0.00 0.00 0.00 65 1004.7
20260505214514 30 169 8.0 22.5 0.00 0.00 0.00 64 1004.7
20260505214004 30 243 4.8 20.9 0.00 0.00 0.00 66 1004.8
20260505213506 30 251 11.3 20.9 0.00 0.00 0.00 64 1004.8
20260505212503 31 300 8.0 30.6 0.00 0.00 0.00 64 1004.8
20260505212011 30 237 8.0 25.7 0.00 0.00 0.00 62 1004.8
20260505211518 31 207 12.9 19.3 0.00 0.00 0.00 63 1004.9
20260505211003 31 214 4.8 19.3 0.00 0.00 0.00 64 1004.8
20260505210502 30 246 4.8 19.3 0.00 0.00 0.00 65 1004.8
20260505210006 31 236 9.7 19.3 0.00 0.00 0.00 65 1005.0
20260505205503 31 209 9.7 19.3 0.00 0.00 0.00 64 1005.1
20260505205003 31 271 6.4 19.3 0.00 0.00 0.00 64 1005.2
20260505204508 31 224 9.7 17.7 0.00 0.00 0.00 63 1005.2
20260505204004 30 195 3.2 16.1 0.00 0.00 0.00 64 1005.2
20260505203504 30 253 4.8 17.7 0.00 0.00 0.00 63 1005.3
20260505203015 30 189 6.4 20.9 0.00 0.00 0.00 64 1005.4
20260505202505 30 227 8.0 20.9 0.00 0.00 0.00 63 1005.4
20260505202007 30 216 8.0 22.5 0.00 0.00 0.00 63 1005.4
20260505201512 30 246 9.7 22.5 0.00 0.00 0.00 64 1005.5
20260505201004 30 262 9.7 24.1 0.00 0.00 0.00 64 1005.5
20260505200503 30 242 11.3 24.1 0.00 0.00 0.00 62 1005.6
20260505200013 30 229 6.4 22.5 0.00 0.00 0.00 64 1005.6
20260505195503 30 170 11.3 22.5 0.00 0.00 0.00 64 1005.6
20260505195003 30 86 8.0 17.7 0.00 0.00 0.00 65 1005.6
20260505194508 30 247 9.7 17.7 0.00 0.00 0.00 64 1005.6
20260505194003 30 249 8.0 30.6 0.00 0.00 0.00 65 1005.6
20260505193505 30 232 11.3 30.6 0.00 0.00 0.00 65 1005.6
20260505193015 29 227 8.0 20.9 0.00 0.00 0.00 66 1005.6
20260505192504 29 285 8.0 25.7 0.00 0.00 0.00 67 1005.6
20260505192005 28 187 12.9 25.7 0.00 0.00 0.00 66 1005.7
20260505191516 28 265 8.0 20.9 0.00 0.00 0.00 69 1005.7
20260505191006 28 250 9.7 27.4 0.00 0.00 0.00 68 1005.8
20260505190505 28 207 8.0 27.4 0.00 0.00 0.00 68 1005.8
20260505190014 28 257 11.3 24.1 0.00 0.00 0.00 69 1005.8
20260505185504 28 210 11.3 25.7 0.00 0.00 0.00 69 1005.9
20260505185009 27 226 9.7 25.7 0.00 0.00 0.00 70 1005.8
20260505184520 27 240 11.3 25.7 0.00 0.00 0.00 70 1005.8
20260505184004 27 177 11.3 25.7 0.00 0.00 0.00 70 1006.0
20260505183503 27 243 11.3 22.5 0.00 0.00 0.00 70 1005.9
20260505183012 27 246 8.0 22.5 0.00 0.00 0.00 70 1005.9
20260505182503 27 275 9.7 24.1 0.00 0.00 0.00 71 1006.0
20260505182006 27 241 11.3 24.1 0.00 0.00 0.00 70 1006.0
20260505181516 27 234 4.8 24.1 0.00 0.00 0.00 69 1006.0
20260505181008 27 200 9.7 24.1 0.00 0.00 0.00 71 1006.1
20260505180507 27 211 6.4 20.9 0.00 0.00 0.00 69 1006.0
20260505180015 27 128 6.4 25.7 0.00 0.00 0.00 69 1006.0
20260505175506 28 232 11.3 25.7 0.00 0.00 0.00 67 1006.0
20260505175006 28 240 9.7 19.3 0.00 0.00 0.00 69 1006.1
20260505174518 28 220 6.4 24.1 0.00 0.00 0.00 70 1006.0
20260505174006 27 191 8.0 25.7 0.00 0.00 0.00 70 1005.9
20260505173510 27 261 11.3 25.7 0.00 0.00 0.00 70 1005.9
20260505173017 27 244 11.3 25.7 0.00 0.00 0.00 71 1006.0
20260505172503 27 225 9.7 24.1 0.00 0.00 0.00 70 1006.0
20260505172003 27 254 9.7 20.9 0.00 0.00 0.00 70 1006.1
20260505171515 27 250 6.4 19.3 0.00 0.00 0.00 71 1006.1
20260505171007 27 234 11.3 25.7 0.00 0.00 0.00 69 1006.0
20260505170508 27 207 9.7 25.7 0.00 0.00 0.00 70 1006.1
20260505170023 26 275 11.3 22.5 0.00 0.00 0.00 71 1006.1
20260505165505 26 238 6.4 25.7 0.00 0.00 0.00 71 1006.1
20260505165005 26 219 8.0 25.7 0.00 0.00 0.00 72 1006.0
20260505164518 26 203 6.4 25.7 0.00 0.00 0.00 72 1006.2
20260505164007 26 218 12.9 32.2 0.00 0.00 0.00 72 1006.2
20260505163510 26 258 11.3 33.8 0.00 0.00 0.00 72 1005.9
20260505163022 26 227 14.5 33.8 0.00 0.00 0.00 72 1006.0
20260505162506 26 234 12.9 30.6 0.00 0.00 0.00 73 1005.9
20260505162006 25 212 6.4 30.6 0.00 0.00 0.00 75 1005.9
20260505161517 25 211 14.5 33.8 0.00 0.00 0.00 74 1005.9
20260505161006 25 173 12.9 33.8 0.00 0.00 0.00 74 1005.8
20260505160506 25 200 9.7 29.0 0.00 0.00 0.00 76 1005.8
20260505153021 23 256 11.3 25.7 0.00 0.00 0.00 78 1006.1
20260505152506 23 215 9.7 17.7 0.00 0.00 0.00 78 1006.1
20260505152013 23 259 6.4 17.7 0.00 0.00 0.00 79 1006.2
20260505151520 23 209 9.7 24.1 0.00 0.00 0.00 78 1006.2
20260505151009 23 195 9.7 29.0 0.00 0.00 0.00 79 1006.1
20260505150507 23 219 4.8 32.2 0.00 0.00 0.00 79 1006.1
20260505140508 22 200 12.9 24.1 0.00 0.00 0.00 81 1005.7
20260505125008 22 202 11.3 22.5 0.00 0.00 0.00 82 1005.7
20260505124538 22 242 8.0 19.3 0.00 0.00 0.00 82 1005.5
20260505124010 22 225 6.4 25.7 0.00 0.00 0.00 82 1005.4
20260505123508 21 253 8.0 25.7 0.00 0.00 0.00 82 1005.3
20260505123022 21 238 8.0 22.5 0.00 0.00 0.00 82 1005.4
20260505122510 21 220 9.7 22.5 0.00 0.00 0.00 82 1005.2
20260505122014 21 211 9.7 25.7 0.00 0.00 0.00 82 1005.2
20260505121532 21 186 8.0 25.7 0.00 0.00 0.00 82 1005.3
20260505121011 21 224 8.0 25.7 0.00 0.00 0.00 82 1005.2
20260505120504 21 241 6.4 20.9 0.00 0.00 0.00 82 1005.2
20260505120009 21 201 8.0 20.9 0.00 0.00 0.00 82 1005.1
20260505115504 21 231 8.0 29.0 0.00 0.00 0.00 82 1005.0
20260505115003 21 214 12.9 29.0 0.00 0.00 0.00 83 1005.1
20260505114514 21 206 9.7 22.5 0.00 0.00 0.00 83 1005.0
20260505114008 21 226 8.0 22.5 0.00 0.00 0.00 82 1005.0
20260505113506 21 234 8.0 22.5 0.00 0.00 0.00 82 1005.0
20260505113004 21 194 9.7 22.5 0.00 0.00 0.00 82 1005.0
20260505112503 21 223 6.4 22.5 0.00 0.00 0.00 82 1004.9
20260505112003 21 245 9.7 25.7 0.00 0.00 0.00 82 1005.1
20260505111504 21 248 8.0 25.7 0.00 0.00 0.00 82 1005.1
20260505111004 21 168 6.4 19.3 0.00 0.00 0.00 82 1005.0
20260505110504 21 216 6.4 17.7 0.00 0.00 0.00 82 1004.9
20260505102006 21 178 11.3 22.5 0.00 0.00 0.00 82 1005.1
20260505101503 21 232 8.0 19.3 0.00 0.00 0.00 82 1005.1
20260505101003 21 227 11.3 19.3 0.00 0.00 0.00 82 1005.1
20260505100503 21 258 6.4 17.7 0.00 0.00 0.00 82 1005.2
20260505100014 21 263 6.4 19.3 0.00 0.00 0.00 82 1005.3
20260505095503 21 258 6.4 19.3 0.00 0.00 0.00 82 1005.4
20260505095005 21 227 6.4 20.9 0.00 0.00 0.00 82 1005.3
20260505094513 21 219 8.0 20.9 0.00 0.00 0.00 82 1005.4
20260505094005 21 222 8.0 20.9 0.00 0.00 0.00 82 1005.4
20260505093506 21 159 6.4 20.9 0.00 0.00 0.00 82 1005.6
20260505093024 21 190 6.4 24.1 0.00 0.00 0.00 82 1005.6
20260505092505 21 264 8.0 25.7 0.00 0.00 0.00 82 1005.5
20260505092008 21 233 9.7 25.7 0.00 0.00 0.00 82 1005.4
20260505091523 21 236 11.3 22.5 0.00 0.00 0.00 82 1005.4
20260505091006 21 244 4.8 22.5 0.00 0.00 0.00 82 1005.5
20260505090503 21 204 8.0 17.7 0.00 0.00 0.00 82 1005.5
20260505090004 21 215 4.8 22.5 0.00 0.00 0.00 82 1005.2
20260505085504 21 175 8.0 22.5 0.00 0.00 0.00 82 1005.3
20260505085009 21 223 8.0 27.4 0.00 0.00 0.00 82 1005.3
20260505084506 21 213 8.0 27.4 0.00 0.00 0.00 82 1005.4
20260505084005 21 191 8.0 20.9 0.00 0.00 0.00 82 1005.4
20260505083509 21 250 8.0 20.9 0.00 0.00 0.00 82 1005.5
20260505083018 21 225 6.4 20.9 0.00 0.00 0.00 82 1005.5
20260505082506 21 231 6.4 17.7 0.00 0.00 0.00 82 1005.5
20260505082008 21 242 6.4 24.1 0.00 0.00 0.00 82 1005.5
20260505081518 21 45 4.8 24.1 0.00 0.00 0.00 82 1005.5
20260505081008 21 248 6.4 17.7 0.00 0.00 0.00 82 1005.6
20260505080508 21 195 8.0 19.3 0.00 0.00 0.00 82 1005.7
20260505080025 21 158 6.4 30.6 0.00 0.00 0.00 82 1005.8
20260505075503 21 243 8.0 30.6 0.00 0.00 0.00 82 1005.8
20260505075003 21 207 3.2 20.9 0.00 0.00 0.00 82 1005.9
20260505074509 21 196 8.0 17.7 0.00 0.00 0.00 82 1005.9
20260505074004 21 236 4.8 19.3 0.00 0.00 0.00 81 1006.0
20260505073503 21 207 6.4 19.3 0.00 0.00 0.00 81 1006.1
20260505073012 21 209 6.4 17.7 0.00 0.00 0.00 81 1006.2
20260505072503 21 215 8.0 24.1 0.00 0.00 0.00 81 1006.2
20260505072006 21 207 8.0 29.0 0.00 0.00 0.00 81 1006.3
20260505071518 21 244 8.0 29.0 0.00 0.00 0.00 81 1006.4
20260505071008 21 246 9.7 25.7 0.00 0.00 0.00 80 1006.3
20260505070509 21 255 6.4 25.7 0.00 0.00 0.00 80 1006.4
20260505070020 21 252 9.7 24.1 0.00 0.00 0.00 80 1006.5
20260505065507 21 220 12.9 25.7 0.00 0.00 0.00 80 1006.5
20260505065012 21 252 4.8 25.7 0.00 0.00 0.00 80 1006.5
20260505064524 21 220 11.3 24.1 0.00 0.00 0.00 80 1006.5
20260505064003 21 222 12.9 24.1 0.00 0.00 0.00 80 1006.4
20260505063503 21 211 11.3 25.7 0.00 0.00 0.00 79 1006.5
20260505063014 21 238 11.3 27.4 0.00 0.00 0.00 79 1006.5
20260505062504 21 173 9.7 27.4 0.00 0.00 0.00 79 1006.6
20260505062005 21 184 6.4 19.3 0.00 0.00 0.00 79 1006.6
20260505061512 21 125 6.4 22.5 0.00 0.00 0.00 79 1006.6
20260505061004 21 240 6.4 24.1 0.00 0.00 0.00 78 1006.8
20260505060508 21 182 9.7 22.5 0.00 0.00 0.00 78 1006.9
20260505060017 21 164 9.7 22.5 0.00 0.00 0.00 78 1006.8
20260505055509 21 268 8.0 24.1 0.00 0.00 0.00 78 1006.8
20260505055010 21 236 6.4 24.1 0.00 0.00 0.00 78 1006.8
20260505054534 21 250 8.0 24.1 0.00 0.00 0.00 77 1006.8
20260505054011 21 134 8.0 19.3 0.00 0.00 0.00 77 1006.9
20260505053510 22 173 6.4 25.7 0.00 0.00 0.00 77 1006.9
20260505053026 22 170 9.7 25.7 0.00 0.00 0.00 77 1007.0
20260505052504 22 217 6.4 27.4 0.00 0.00 0.00 76 1007.0
20260505052006 22 121 8.0 27.4 0.00 0.00 0.00 76 1007.2
20260505051513 22 229 6.4 25.7 0.00 0.00 0.00 76 1007.3
20260505051006 22 226 8.0 19.3 0.00 0.00 0.00 76 1007.1
20260505050507 22 234 6.4 19.3 0.00 0.00 0.00 75 1007.2
20260505041511 22 243 6.4 17.7 0.00 0.00 0.00 73 1007.4
20260505041006 22 240 6.4 19.3 0.00 0.00 0.00 73 1007.4
20260505040506 22 250 4.8 19.3 0.00 0.00 0.00 73 1007.5
20260505040016 22 238 4.8 19.3 0.00 0.00 0.00 72 1007.4
20260505035507 22 173 6.4 19.3 0.00 0.00 0.00 72 1007.3
20260505035007 22 193 4.8 19.3 0.00 0.00 0.00 72 1007.3
20260505034520 22 99 3.2 16.1 0.00 0.00 0.00 72 1007.3
20260505034006 22 223 4.8 19.3 0.00 0.00 0.00 71 1007.2
20260505033508 22 219 8.0 22.5 0.00 0.00 0.00 71 1007.2
20260505033024 22 217 8.0 20.9 0.00 0.00 0.00 71 1007.3
20260505032512 22 218 4.8 16.1 0.00 0.00 0.00 71 1007.4
20260505032011 22 167 3.2 14.5 0.00 0.00 0.00 71 1007.3
20260505031531 22 228 4.8 14.5 0.00 0.00 0.00 71 1007.4
20260505031007 22 182 4.8 14.5 0.00 0.00 0.00 70 1007.4
20260505030507 23 156 3.2 12.9 0.00 0.00 0.00 70 1007.4
20260505030010 23 231 4.8 17.7 0.00 0.00 0.00 70 1007.5
20260505025509 23 225 4.8 17.7 0.00 0.00 0.00 70 1007.5
20260505025007 23 185 4.8 16.1 0.00 0.00 0.00 70 1007.4
20260505024516 23 232 3.2 16.1 0.00 0.00 0.00 70 1007.5
20260505024007 23 188 3.2 20.9 0.00 0.00 0.00 69 1007.2
20260505023508 23 222 4.8 20.9 0.00 0.00 0.00 69 1007.1
20260505023023 23 140 6.4 19.3 0.00 0.00 0.00 69 1007.0
20260505022506 23 165 3.2 19.3 0.00 0.00 0.00 69 1007.3
20260505022010 23 182 4.8 14.5 0.00 0.00 0.00 69 1007.2
20260505021525 23 186 3.2 12.9 0.00 0.00 0.00 68 1007.1
20260505021009 23 148 3.2 12.9 0.00 0.00 0.00 68 1007.1
20260505020510 23 220 6.4 20.9 0.00 0.00 0.00 68 1007.1
20260505020034 23 194 4.8 20.9 0.00 0.00 0.00 68 1007.1
20260505015511 23 190 6.4 14.5 0.00 0.00 0.00 68 1007.1
20260505015005 23 200 4.8 16.1 0.00 0.00 0.00 68 1007.2
20260505014520 23 196 6.4 17.7 0.00 0.00 0.00 67 1007.2
20260505014006 23 149 6.4 17.7 0.00 0.00 0.00 67 1007.1
20260505013507 23 232 8.0 22.5 0.00 0.00 0.00 67 1007.1
20260505013021 23 179 9.7 22.5 0.00 0.00 0.00 67 1007.1
20260505012508 23 186 3.2 16.1 0.00 0.00 0.00 66 1007.1
20260505012007 23 200 4.8 12.9 0.00 0.00 0.00 66 1007.1
20260505011525 23 260 3.2 19.3 0.00 0.00 0.00 66 1007.1
20260505011010 23 260 8.0 19.3 0.00 0.00 0.00 66 1007.2
20260505010510 24 227 4.8 16.1 0.00 0.00 0.00 66 1007.1
20260505010032 24 179 4.8 16.1 0.00 0.00 0.00 65 1007.1
20260505005509 24 236 6.4 22.5 0.00 0.00 0.00 65 1007.1
20260505005010 24 236 6.4 24.1 0.00 0.00 0.00 64 1007.1
20260505004527 24 180 8.0 29.0 0.00 0.00 0.00 64 1007.2
20260505004009 25 217 6.4 29.0 0.00 0.00 0.00 64 1007.1
20260505003507 25 233 11.3 29.0 0.00 0.00 0.00 63 1007.0
20260505003022 25 221 11.3 29.0 0.00 0.00 0.00 63 1007.1
20260505002506 25 240 11.3 25.7 0.00 0.00 0.00 63 1007.1
20260505002010 25 213 9.7 24.1 0.00 0.00 0.00 63 1007.3
20260505001524 25 224 9.7 24.1 0.00 0.00 0.00 63 1007.3
20260505001006 25 219 8.0 19.3 0.00 0.00 0.00 63 1007.3
20260505000506 25 236 6.4 22.5 0.00 0.00 0.00 63 1007.2
20260505000031 25 258 8.0 22.5 0.00 0.00 0.00 63 1007.2
20260504235507 25 229 9.7 17.7 0.00 0.00 0.00 62 1007.3
20260504235009 25 241 4.8 27.4 0.00 0.00 0.00 62 1007.5
20260504234526 25 217 11.3 27.4 0.00 0.00 0.00 61 1007.4
20260504234010 25 211 11.3 27.4 0.00 0.00 0.00 60 1007.4
20260504233509 25 214 8.0 27.4 0.00 0.00 0.00 60 1007.4
20260504233028 26 230 12.9 25.7 0.00 0.00 0.00 60 1007.3
20260504232507 26 284 6.4 24.1 0.00 0.00 0.00 60 1007.3
20260504232007 26 219 9.7 25.7 0.00 0.00 0.00 60 1007.4
20260504231522 26 244 9.7 25.7 0.00 0.00 0.00 60 1007.6